Location: Recife
(8.0585°S, 34.8848°W)
Time: 21:26:53
(UTC-03:00)

Explorer 11/Cluster Stage 4 - Pass Details

Date: 19 April 2026
Orbit: 463 x 1174 km, 28.8° (Epoch: 16 May)

Event Time Altitude Azimuth Distance (km) Brightness Sun altitude
Rises 17:59:39 0° 297° (WNW) 3,845 11.7 -11.6°
Reaches altitude 10° 18:02:36 10° 296° (WNW) 2,802 10.7 -12.3°
Maximum altitude 18:09:25 79° 210° (SSW) 906 6.9 -14.0°
Enters shadow 18:13:34 19° 125° (SE) 1,806 7.9 -15.0°
Drops below altitude 10° 18:14:58 10° 123° (ESE) 2,301 - -15.3°
Sets 18:17:12 0° 122° (ESE) 3,120 - -15.9°
